Regional Weather Roundup
Issued by NWS

Home | Current Version | Previous Version | Graphics & Text | Print | Product List | Glossary Off
Versions: 1 2 3 4 5 6 7 8 9 10 11 12 13 14 15 16 17 18 19 20 21 22 23 24 25 26 27 28 29 30 31 32 33 34 35 36 37 38 39 40 41 42 43 44 45 46 47 48 49 50

000
ASUS43 KMKX 300521
RWRWI

WISCONSIN REGIONAL WEATHER ROUNDUP
NATIONAL WEATHER SERVICE MILWAUKEE/SULLIVAN WI
1200 AM CDT FRI SEP 30 2016

NOTE: "FAIR" INDICATES FEW OR NO CLOUDS BELOW 12,000 FEET WITH NO
SIGNIFICANT WEATHER AND/OR OBSTRUCTIONS TO VISIBILITY.

WIZ001-002-006>008-014>016-023>028-300600-
NORTHWEST WISCONSIN

CITY           SKY/WX    TMP DP  RH WIND       PRES   REMARKS
SUPERIOR ARPT  CLOUDY    53  51  95 E7        30.46F
ASHLAND        CLOUDY    53  52  96 E8        30.46F
HAYWARD        CLOUDY    53  51  93 NE3       30.44F
SIREN          MOCLDY    51  50  96 E6        30.43S
CUMBERLAND     CLEAR     50  46  87 CALM      30.42S
RICE LAKE      CLEAR     50  48  95 CALM      30.43S FOG
CHETEK         NOT AVBL
LADYSMITH      CLEAR     53  51  94 NE5       30.44S
EAU CLAIRE     CLEAR     55  53  93 NE6       30.39S
MENOMONIE      CLEAR     56  52  87 N5        30.40S
NEW RICHMOND   CLEAR     51  50  96 CALM      30.41S
OSCEOLA        CLEAR     53  53 100 CALM      30.43F
$$

WIZ003>005-009-010-017-018-300600-
NORTH CENTRAL WISCONSIN

CITY           SKY/WX    TMP DP  RH WIND       PRES   REMARKS
MANITOWISH WTR NOT AVBL
ARBOR VITAE    CLEAR     52  51  97 NE3       30.43F
WOODRUFF       CLEAR     52  51  97 NE3       30.43F
RHINELANDER    CLEAR     50  50 100 CALM      30.43F
EAGLE RIVER    PTCLDY    45  45 100 CALM      30.43F FOG
LAND O LAKES   CLOUDY    50  50 100 N3        30.46F FOG
PHILLIPS       PTCLDY    48  48 100 CALM      30.42F FOG
TOMAHAWK       CLEAR     50  49  96 CALM      30.42F
MEDFORD        CLEAR    N/A N/A N/A NE5       30.40S
MERRILL        CLEAR     52  51  96 E5        30.41F
$$

WIZ029-030-035-036-043>047-300600-
CENTRAL WISCONSIN

CITY           SKY/WX    TMP DP  RH WIND       PRES   REMARKS
WAUSAU         CLEAR     54  48  80 NE6       30.38F
MOSINEE        CLEAR     52  50  93 N7        30.39F
MARSHFIELD     CLEAR     56  50  80 NE9       30.37F
STEVENS POINT  CLEAR     53  49  85 N8        30.36F
WAUPACA        CLEAR     58  53  84 N7        30.35F
WAUTOMA        MOCLDY    57  52  83 NE9       30.33F
WISC RAPIDS    CLEAR     57  51  80 NE8       30.37F
CAMP DOUGLAS   CLEAR     48  47  94 NW2       30.34F
$$

WIZ011>013-019>022-031-037>040-048>050-300600-
NORTHEAST WISCONSIN

CITY           SKY/WX    TMP DP  RH WIND       PRES   REMARKS
ANTIGO         CLEAR     48  47  95 CALM      30.40F
SHAWANO        CLEAR     57  52  82 N10       30.37F
OCONTO         NOT AVBL
STURGEON BAY   CLEAR     58  56  93 N7        30.36F
GREEN BAY      MOCLDY    58  57  97 N12       30.34F
MANITOWOC      CLOUDY    63  54  72 MISG      30.32F
APPLETON       PTCLDY    55  54  94 N10       30.32F
CLINTONVILLE   CLEAR     55  50  82 N10       30.36F
OSHKOSH        MOCLDY    60  55  83 NE14      30.31F
$$

WIZ032>034-041-042-053>061-300600-
SOUTHWEST WISCONSIN

CITY           SKY/WX    TMP DP  RH WIND       PRES   REMARKS
LA CROSSE      CLEAR     56  55  97 CALM      30.35S
SPARTA         CLEAR     45  45 100 CALM      30.36S
VIROQUA        CLEAR     56  49  77 NE6       30.34F
BOSCOBEL       CLEAR     55  50  83 VRB5      30.31F
PRAIRIE DU CHI CLEAR     55  51  85 NW3       30.31F
PLATTEVILLE    CLEAR     54  48  80 N8        30.29F
$$

WIZ056-057-062-063-064-067-068-300600-
SOUTH CENTRAL WISCONSIN

CITY           SKY/WX    TMP DP  RH WIND       PRES   REMARKS
REEDSBURG      NOT AVBL
BARABOO/DELLS  CLEAR     56  49  78 NE6       30.31F
LONE ROCK      CLEAR     58  48  69 N10       30.31F
MINERAL POINT  CLEAR     55  48  76 N8        30.29F
MADISON        CLEAR     56  52  86 N12       30.28F
MIDDLETON      CLEAR     57  53  86 NE10      30.29F
WATERTOWN      CLOUDY    57  57 100 N6        30.27F
MONROE         CLEAR     55  52  88 N12       30.26F
JANESVILLE     PTCLDY    59  55  88 N3        30.24F
$$

WIZ051-052-058>065-066-070>072-300600-
SOUTHEAST WISCONSIN

CITY           SKY/WX    TMP DP  RH WIND       PRES   REMARKS
MILWAUKEE      CLOUDY    61  56  83 NE12G22   30.26F
WAUKESHA       CLOUDY    59  52  77 NE12      30.27S
MILWAUKEE/TIMM CLOUDY    59  50  72 NE10G18   30.27F
RACINE         CLOUDY    61  56  83 NE15      30.26F
BURLINGTON     MOCLDY    59  54  83 NE6       30.24F
KENOSHA        CLOUDY    60  57  89 NE12G20   30.23F
FOND DU LAC    CLOUDY    60  56  86 NE9       30.30F
SHEBOYGAN      CLOUDY    61  54  77 NE15      30.30F
WEST BEND      CLOUDY    64  61  88 NE9       30.28F
JUNEAU         MOCLDY    56  54  92 N7        30.30F
$$

LSZ147-162-300600-
LAKE SUPERIOR

STATION/POSITION TIME  TEMP    WIND        PRES    WAVE
                       AIR SEA DIR/SP/G            HT/PER
                 (UTC) (F)     (DEG/KT/KT) (MB)    (FT/S)
W MID LAKE BUOY  0450   55 55   50/  6/  6 1031.9F   2/ 5
DEVILS ISLAND    0500   53      60/  9/ 10 1032.3F
SAXON HARBOR     0400   53     200/  1/  2 1031.2
$$

LMZ867-665-643>646-300600-
LAKE MICHIGAN

STATION/POSITION TIME  TEMP    WIND        PRES    WAVE
                       AIR SEA DIR/SP/G            HT/PER
                 (UTC) (F)     (DEG/KT/KT) (MB)    (FT/S)
CHAMBERS ISLAND  0400   60     350/ 17/ 20 1028.1S
S GREEN BAY BUOY 0500   59 62   10/ 16/ 19 1027.0F
N MID LAKE BUOY  0450   65 65   60/ 17/ 21 1027.3F   3/ 4
NORTHPORT PIER   0400   62     360/ 11/ 13 1028.1F
SISTER BAY       0323   60      20/  8/ 10   N/A
KEWAUNEE LAKESHO 0500   63      50/  8/ 12 1026.4F
SHEBOYGAN LAKESH 0500   61      30/ 17/ 18 1025.5F
PORT WASHINGTON  0440   60      40/ 11/ 14 1025.7F
ATWATER BUOY     0500   57 53   40/ 12/ 14 1024.4F
MILWAUKEE LAKESH 0510   59      30/ 14/ 15   N/A
S MID LAKE BUOY  0450   63 68   50/ 21/ 27 1022.4F   5/ 5
KENOSHA   LAKESH 0500   61      30/ 17/ 19 1023.4F
$$

TC  - TEMPERATURE IN CELSIUS
VSB - VISIBILITY IN STATUTE MILES
WCI - WIND CHILL INDEX
HX  - HEAT INDEX




USA.gov is the U.S. government's official web portal to all federal, state and local government web resources and services.